STARLINK-35929, 66625

Orbit data source: Space-Track

STARLINK-35929, 66625 is a payload satellite owned by SpaceX/Seattle (US) in LEO that was launched on Sun, 23 Nov 2025 UTC via an FALCON 9 launch vehicle from the Air Force Western Test Range (AFWTR). Payload-class satellites include a variety of spacecraft equipped with specific instruments for various scientific and technological missions. These include communications satellites like Starlink; space stations such as the ISS; scientific satellites like the Hubble; Earth observation satellites from companies like Planet Labs, Umbra, and HawkEye 360; GPS; miniature CubeSats for education and research; and military/defense satellites.

Loading next visibility...
Identifier
66625, 2025-271J
Orbit
LEO
Country
Flag of USUS
Related business
Manufacturer
SpaceX/Seattle
Mission
Operational spacecraft
Bus & Motor
STARLINK V2MO, Unknown motor
Mass
575 kg wet, ~530 kg dry
Launch date (UTC)
2025-11-23 (2 months ago)
Launch vehicle
FALCON 9
Launch site
Air Force Western Test Range (AFWTR)
Object type
Payload
Rocket body
Debris
Shape & HBR
Unknown shape, 17.7 m
Radar Cross Section
RCS unknown

Expand to show TLE details & history
Last TLE update: 5 hours ago

TLE from 5 hours ago
0 STARLINK-35929
1 66625U 25271J   26037.10116551  .00035612  00000-0  12079-2 0  9998
2 66625  53.1574 286.4275 0000357  36.4971 323.6054 15.30223896 12736
Epoch: 2026-02-06T02:25Z
TLE epoch observation values (Epoch: 2026-02-06T02:25:40.700Z)
Latitude
-0°
Longitude
113.76404°
Altitude
475.846 km
Speed
7.629 km/s
True Right ascension
19h 05m 42s
True Declination
0° 00' 00"
Sunlit
Object was in daylight at epoch
Visualization orbit readout
Latitude
Unknown
Longitude
Unknown
Altitude
Unknown
Speed
Unknown
Apparent Right ascension
Unknown
Apparent Declination
Unknown
Sunlit
N/A
Visualization observer readout
Local Sidereal Time
09:07:41
Azimuth
Unknown
Elevation
Unknown
Doppler factor
Unknown
Orbital elements
Apogee altitude
475.645 km
Perigee altitude
475.156 km
Semi-major axis
6,853.538 km
Eccentricity
0.00004
Inclination
53.1574°
RAAN
286.4275°
Arg. of periapsis
36.4971°
True anomaly
323.60297°
Mean anomaly
323.6054°
Eccentric anomaly
323.60419°
Mean motion
3.82535 °/min
Orbital period
94.11 mins
BSTAR
0.0012079
Loading maneuver chart data...
Computing Atmospheric mass density...
Loading historical data...
Loading historical data...
Loading historical data...
Loading historical data...
Loading historical data...
Loading historical data...
Loading historical data...

Documentation

Showing up to 5 results
|